CDT,Max TemperatureF,Mean TemperatureF,Min TemperatureF,Max Dew PointF,MeanDew PointF,Min DewpointF,Max Humidity, Mean Humidity, Min Humidity, Max Sea Level PressureIn, Mean Sea Level PressureIn, Min Sea Level PressureIn, Max VisibilityMiles, Mean VisibilityMiles, Min VisibilityMiles, Max Wind SpeedMPH, Mean Wind SpeedMPH, Max Gust SpeedMPH,PrecipitationIn, CloudCover, Events, WindDirDegrees
2013-10-1,77,62,47,49,39,28,83,50,20,30.05,29.95,29.81,10,10,10,18,8,24,0.00,0,,88
2013-10-2,82,64,46,55,49,44,92,66,26,29.97,29.89,29.82,10,10,7,12,3,16,0.00,0,,166
2013-10-3,57,52,46,52,47,41,94,80,60,29.83,29.78,29.71,10,7,1,15,9,18,0.00,6,Rain,5
2013-10-4,55,46,36,53,39,26,95,74,42,30.14,29.88,29.68,10,7,0,32,14,43,0.00,5,Fog-Rain,318
2013-10-5,55,44,34,26,21,13,70,45,20,30.15,30.11,30.06,10,10,10,32,19,43,0.00,3,,311
2013-10-6,70,53,36,33,28,25,67,42,21,30.19,30.15,30.12,10,10,10,26,12,36,0.00,0,,318
2013-10-7,81,58,35,37,28,14,87,44,8,30.19,30.07,29.92,10,10,7,20,10,25,0.00,0,,211
2013-10-8,83,61,39,32,26,15,68,32,8,29.92,29.79,29.70,10,9,5,23,12,33,0.00,0,,190
2013-10-9,73,56,40,39,33,24,77,43,23,29.89,29.82,29.71,10,10,7,24,12,30,0.00,0,,268
2013-10-10,84,60,37,52,40,32,94,63,18,29.88,29.74,29.49,10,9,4,37,9,47,0.00,1,Rain,193
2013-10-11,63,52,41,46,36,32,80,57,36,30.07,29.78,29.55,10,10,10,29,14,37,0.00,1,Rain,269
2013-10-12,59,51,43,43,37,29,89,64,36,30.24,30.18,30.07,10,10,10,15,5,17,0.00,6,Rain,146
2013-10-13,66,54,41,51,38,33,80,57,32,30.26,30.17,30.02,10,10,10,31,18,38,0.00,1,,149
2013-10-14,72,56,40,54,44,28,86,68,19,30.10,29.91,29.70,10,10,7,40,24,55,0.00,3,Rain,230
2013-10-15,50,41,32,30,27,25,79,59,39,30.25,30.19,30.10,10,10,10,24,16,32,0.00,3,,320
2013-10-16,56,40,25,29,26,23,89,62,32,30.24,30.09,29.97,10,10,3,10,7,20,0.00,0,,243
2013-10-17,55,42,30,31,29,26,82,61,36,30.11,30.05,29.99,10,10,5,17,9,21,0.00,1,Snow,334
2013-10-18,48,39,31,34,29,21,98,78,39,30.18,30.13,30.10,10,8,1,22,7,33,0.00,5,Rain-Snow,304
2013-10-19,64,46,28,32,27,22,88,59,20,30.12,29.99,29.90,10,10,10,18,9,25,0.00,0,,253
2013-10-20,57,44,33,35,31,28,85,60,35,30.12,29.94,29.82,10,10,10,21,9,28,0.00,3,,310
2013-10-21,61,45,30,36,30,24,94,62,25,30.15,30.10,30.04,10,10,7,21,8,31,0.00,3,,259
2013-10-22,68,54,41,37,34,29,76,50,24,30.14,30.10,30.07,10,10,10,22,9,30,0.00,4,,281
2013-10-23,69,52,34,38,31,23,89,56,17,30.24,30.11,30.04,10,10,10,18,7,28,0.00,0,,324
2013-10-24,51,40,30,36,33,28,96,77,54,30.36,30.30,30.24,10,10,5,16,5,20,0.00,2,,148
2013-10-25,65,50,34,38,34,31,86,65,31,30.31,30.18,30.05,10,10,10,21,12,26,0.00,0,,196
2013-10-26,61,50,38,38,32,26,84,57,26,30.33,30.22,30.10,10,10,10,13,6,17,0.00,0,,326
2013-10-27,75,54,34,35,29,14,87,52,10,30.14,29.94,29.82,10,10,4,14,8,,0.00,0,,195
2013-10-28,47,41,35,36,32,30,93,77,55,30.07,29.99,29.83,10,9,2,21,8,25,0.00,5,Rain,38
2013-10-29,41,38,34,36,35,32,96,91,82,30.07,30.01,29.94,10,6,1,10,8,,0.00,8,Rain,19
2013-10-30,57,46,34,38,34,31,95,78,39,29.98,29.87,29.79,10,8,1,8,4,,0.00,5,,346
2013-10-31,60,48,36,34,25,14,85,49,17,29.81,29.77,29.72,10,10,10,30,10,40,0.00,2,,287